Weather reports worldwide

Advertisment
Nordkoster, Sweden (2500): temperature & dewpoint: 06.12.2019 11:00:00 - 12.12.2019 11:00:00 (CET)Nordkoster, Sweden (2500): wind speed & gusts: 06.12.2019 11:00:00 - 12.12.2019 11:00:00 (CET)Nordkoster, Sweden (2500): wind direction: 06.12.2019 11:00:00 - 12.12.2019 11:00:00 (CET)Nordkoster, Sweden (2500): reduced air pressure: 06.12.2019 11:00:00 - 12.12.2019 11:00:00 (CET)Nordkoster, Sweden (2500): visibility: 06.12.2019 11:00:00 - 12.12.2019 11:00:00 (CET)Nordkoster, Sweden (2500): precipitation: 06.12.2019 11:00:00 - 12.12.2019 11:00:00 (CET)
Date & Time tt [°C] td [°C] ff [km/h] ff [kn] fx [km/h] fx [kn] dd ppp [hPa] vv [km] rr [mm]
12.12.2019 11:00:00 5,6 4,0 23 12 37 20 SSE 994,6 11 0,0
12.12.2019 10:00:00 6,2 3,5 29 16 39 21 S 995,4 16 0,0
12.12.2019 09:00:00 6,1 3,9 28 15 37 20 S 995,3 13 0,0
12.12.2019 08:00:00 6,2 4,0 27 15 39 21 S 995,3 13 0,0
12.12.2019 07:00:00 6,5 4,0 31 17 40 22 SSW 995,8 13 0,0
12.12.2019 06:00:00 6,6 3,7 30 16 43 23 SSW 996,0 11 0,0
12.12.2019 05:00:00 6,5 4,2 32 18 44 24 SSW 996,3 10 0,0
12.12.2019 04:00:00 6,4 4,1 32 17 42 23 S 996,8 11 0,0
12.12.2019 03:00:00 6,5 4,5 31 17 46 25 S 997,3 10 0,0
12.12.2019 02:00:00 6,6 4,4 32 17 45 25 SSW 997,8 9 0,0
12.12.2019 01:00:00 6,6 4,4 33 18 44 24 SSW 997,9 10 0,1
12.12.2019 00:00:00 6,7 4,2 32 18 44 24 SSW 998,4 9 0,0
11.12.2019 23:00:00 6,7 4,4 32 17 43 23 S 998,6 10 0,0
11.12.2019 22:00:00 6,4 4,2 28 15 45 24 S 998,4 10 0,0
11.12.2019 21:00:00 6,7 3,7 28 15 49 27 SSW 998,7 12 0,0
11.12.2019 20:00:00 6,7 4,5 36 19 - - SSW 998,4 10 0,0
11.12.2019 19:00:00 6,8 3,9 35 19 - - SSW 998,4 11 0,0
11.12.2019 18:00:00 7,1 4,6 34 18 47 26 SSW 998,7 10 0,0
11.12.2019 17:00:00 7,0 4,7 27 14 41 22 SSW 998,4 8 0,0
11.12.2019 16:00:00 7,3 3,5 29 16 45 24 SSW 998,2 9 0,0
11.12.2019 15:00:00 7,4 4,2 30 16 49 26 SSW 997,9 8 0,0
11.12.2019 14:00:00 7,6 4,4 28 15 48 26 SSW 998,1 7 0,0
11.12.2019 13:00:00 7,8 4,2 32 17 48 26 SSW 998,1 8 0,0
11.12.2019 12:00:00 7,8 4,6 29 16 51 27 SW 998,4 9 0,0
11.12.2019 11:00:00 7,7 4,5 32 17 48 26 SW 997,9 8 0,0
11.12.2019 10:00:00 7,5 5,1 31 17 44 24 SW 996,8 8 0,0
11.12.2019 09:00:00 7,2 4,8 28 15 51 28 SW 995,5 9 0,0
11.12.2019 08:00:00 7,3 4,1 34 19 55 30 WSW 994,3 12 0,0
11.12.2019 07:00:00 7,7 5,2 39 21 61 33 SW 993,8 8 0,0
11.12.2019 06:00:00 7,3 6,1 50 27 93 50 SSW 992,8 3,8 0,3
11.12.2019 05:00:00 6,7 4,9 68 37 91 49 S 992,3 8 0,0
11.12.2019 04:00:00 5,8 4,3 66 35 95 51 S 992,2 4,5 2,3
11.12.2019 03:00:00 5,4 4,0 68 37 98 53 S 993,4 3,2 1,4
11.12.2019 02:00:00 5,0 4,0 72 39 96 52 S 994,5 3,1 2,3
11.12.2019 01:00:00 5,1 4,1 67 36 - - S 996,2 3,0 3,2
11.12.2019 00:00:00 4,4 3,7 72 39 97 53 S 997,7 2,2 1,6
10.12.2019 23:00:00 4,7 3,0 64 34 99 54 S 998,6 2,4 2,1
10.12.2019 22:00:00 5,8 2,1 65 35 90 48 S 1000,2 9 0,2
10.12.2019 21:00:00 6,1 1,6 66 36 87 47 S 1002,1 12 0,0
10.12.2019 20:00:00 6,1 1,6 66 36 84 46 S 1004,2 12 0,0
10.12.2019 19:00:00 6,1 0,8 56 30 78 42 S 1006,3 15 0,0
10.12.2019 18:00:00 5,8 -0,3 50 27 66 36 S 1008,1 19 0,0
10.12.2019 17:00:00 5,6 0,6 44 24 61 33 S 1009,7 20 0,0
10.12.2019 16:00:00 4,2 1,1 37 20 67 36 SSW 1011,3 14 0,0
10.12.2019 15:00:00 5,2 0,6 35 19 55 30 S 1012,6 26 0,0
10.12.2019 14:00:00 2,7 -3,0 41 22 58 32 SSE 1012,6 45 0,0
10.12.2019 13:00:00 1,9 -4,4 26 14 42 23 SE 1013,3 50 0,0
10.12.2019 12:00:00 2,5 -4,3 26 14 36 19 SSE 1014,8 45 0,0
10.12.2019 11:00:00 1,5 -4,0 17 9 27 15 SE 1016,0 50 0,0
10.12.2019 10:00:00 0,7 -4,1 19 11 24 13 SE 1015,4 50 0,0
10.12.2019 09:00:00 -0,8 -3,7 14 8 20 11 SE 1014,1 50 0,0
10.12.2019 08:00:00 -0,3 -3,0 6 4 13 7 ESE 1014,0 50 0,0
10.12.2019 07:00:00 -0,4 -3,9 8 5 11 6 SE 1013,1 50 0,0
10.12.2019 06:00:00 -0,3 -4,4 5 3 9 5 E 1012,3 50 0,0
10.12.2019 05:00:00 0,9 -5,3 6 3 18 10 NNE 1011,9 50 0,0
10.12.2019 04:00:00 0,9 -5,8 9 5 22 12 N 1011,0 50 0,0
10.12.2019 03:00:00 1,2 -5,5 16 8 26 14 N 1009,6 50 0,0
10.12.2019 02:00:00 1,4 -5,3 16 9 29 16 N 1008,5 50 0,0
10.12.2019 01:00:00 1,4 -4,9 17 9 37 20 N 1007,2 50 0,0
10.12.2019 00:00:00 1,6 -5,1 22 12 39 21 N 1005,4 50 0,0
09.12.2019 23:00:00 1,7 -5,2 23 12 50 27 N 1003,3 50 0,0
09.12.2019 22:00:00 1,9 -6,0 26 14 54 29 N 1001,6 50 0,0
09.12.2019 21:00:00 2,2 -5,7 34 18 56 31 N 999,5 50 0,0
09.12.2019 20:00:00 2,2 -5,0 33 18 58 32 NNW 996,7 50 0,0
09.12.2019 19:00:00 2,5 -4,3 34 19 59 32 N 994,3 50 0,0
09.12.2019 18:00:00 2,4 -3,1 32 17 53 29 N 992,2 50 0,0
09.12.2019 17:00:00 2,0 -3,1 40 21 75 40 N 989,4 50 0,0
09.12.2019 16:00:00 1,8 -2,2 43 23 73 39 N 986,5 18 0,0
09.12.2019 15:00:00 0,6 -0,3 39 21 66 36 N 981,7 4,1 0,3
09.12.2019 14:00:00 1,9 0,6 36 19 55 30 N 978,7 14 0,0
09.12.2019 13:00:00 6,7 3,8 15 8 29 16 WNW 980,3 16 0,0
09.12.2019 12:00:00 6,5 3,8 19 10 43 23 WSW 979,1 14 0,0
09.12.2019 11:00:00 7,1 4,7 30 16 49 26 SSW 978,7 10 0,0
09.12.2019 10:00:00 7,2 4,8 32 18 53 29 SW 978,3 11 0,0
09.12.2019 09:00:00 7,3 4,8 35 19 47 25 SSW 978,1 9 0,0
09.12.2019 08:00:00 7,3 4,6 34 18 50 27 SSW 977,9 10 0,0
09.12.2019 07:00:00 7,0 4,0 27 15 51 28 SW 977,4 13 0,0
09.12.2019 06:00:00 7,3 4,6 33 18 50 27 SW 976,9 10 0,0
09.12.2019 05:00:00 7,2 4,7 29 16 51 28 SW 976,6 10 0,0
09.12.2019 04:00:00 7,2 4,2 31 17 47 25 SW 976,5 10 0,0
09.12.2019 03:00:00 7,0 4,1 28 15 49 26 SW 976,2 10 0,0
09.12.2019 02:00:00 7,0 4,1 28 15 46 25 SW 976,0 10 0,0
09.12.2019 01:00:00 7,1 3,7 29 16 53 29 SW 975,8 10 0,0
09.12.2019 00:00:00 7,0 3,8 29 16 48 26 WSW 975,5 10 0,0
08.12.2019 23:00:00 7,1 3,7 37 20 - - SW 975,0 10 0,0
08.12.2019 22:00:00 7,1 3,7 34 18 55 30 SW 975,1 9 0,0
08.12.2019 21:00:00 7,2 3,3 37 20 56 30 WSW 975,2 10 0,0
08.12.2019 20:00:00 7,3 3,3 36 19 55 30 WSW 975,2 10 0,0
08.12.2019 19:00:00 7,3 4,1 33 18 53 29 SW 975,0 8 0,0
08.12.2019 18:00:00 7,0 3,4 34 18 67 36 WSW 974,4 11 0,0
08.12.2019 17:00:00 7,1 3,3 38 21 58 32 WSW 973,7 12 0,0
08.12.2019 16:00:00 7,4 4,0 37 20 55 30 WSW 973,3 11 0,0
08.12.2019 15:00:00 7,9 4,7 37 20 58 31 WSW 972,7 13 0,0
08.12.2019 14:00:00 8,3 6,1 38 21 54 29 WSW 972,7 10 0,0
08.12.2019 13:00:00 8,1 7,2 36 19 61 33 SW 972,7 6 0,0
08.12.2019 12:00:00 8,1 7,5 37 20 56 30 SSW 974,1 6 0,5
08.12.2019 11:00:00 7,8 7,2 42 23 59 32 SSW 975,5 2,9 1,0
08.12.2019 10:00:00 7,4 7,1 40 22 63 34 SSW 977,8 3,5 1,7
08.12.2019 09:00:00 6,9 6,3 50 27 65 35 S 980,4 4,1 1,4
08.12.2019 08:00:00 4,1 3,7 35 19 49 27 SE 981,8 6 2,2
08.12.2019 07:00:00 2,6 1,9 26 14 35 19 ESE 984,3 5 1,1
08.12.2019 06:00:00 1,7 1,0 20 11 28 15 E 986,9 9 1,9
08.12.2019 05:00:00 2,0 0,8 8 5 26 14 SSE 989,1 5 1,1
08.12.2019 04:00:00 4,2 -1,2 16 8 24 13 SSW 992,3 22 0,0
08.12.2019 03:00:00 3,8 -1,6 9 5 16 8 SW 993,1 41 0,0
08.12.2019 02:00:00 4,0 -3,1 12 7 26 14 WSW 994,6 40 0,0
08.12.2019 01:00:00 4,3 -4,2 16 8 29 16 W 995,9 50 0,0
08.12.2019 00:00:00 4,3 -3,9 19 11 31 17 W 996,4 50 0,0
07.12.2019 23:00:00 4,3 -4,2 19 10 36 19 W 996,5 44 0,0
07.12.2019 22:00:00 4,4 -3,4 24 13 44 24 W 996,9 47 0,0
07.12.2019 21:00:00 4,7 -4,3 33 18 49 27 WNW 996,8 50 0,0
07.12.2019 20:00:00 4,6 -4,4 27 15 41 22 W 996,2 50 0,0
07.12.2019 19:00:00 4,8 -4,2 31 17 43 23 WNW 996,0 50 0,0
07.12.2019 18:00:00 4,9 -3,6 28 15 46 25 W 995,2 50 0,0
07.12.2019 17:00:00 5,2 -3,6 35 19 53 29 WNW 994,7 45 0,0
07.12.2019 16:00:00 5,5 -1,9 39 21 56 30 WNW 993,5 46 0,0
07.12.2019 15:00:00 5,5 -1,9 42 23 55 30 WNW 992,5 45 0,0
07.12.2019 14:00:00 5,5 -1,0 29 16 49 26 WNW 991,7 39 0,0
07.12.2019 13:00:00 5,8 0,1 37 20 50 27 WNW 991,4 31 0,0
07.12.2019 12:00:00 5,6 -0,3 37 20 49 27 W 990,9 38 0,0
07.12.2019 11:00:00 5,4 -0,2 32 18 44 24 W 990,8 39 0,0
07.12.2019 10:00:00 5,3 1,4 26 14 40 22 W 990,1 42 0,0
07.12.2019 09:00:00 4,8 2,8 22 12 29 15 WNW 988,9 50 0,0
07.12.2019 08:00:00 4,6 2,9 20 11 27 15 WNW 987,4 50 0,0
07.12.2019 07:00:00 3,9 2,6 14 8 24 13 NW 985,9 35 0,0
07.12.2019 06:00:00 5,1 4,5 17 9 27 15 WNW 986,1 36 0,0
07.12.2019 05:00:00 4,8 4,4 11 6 19 10 WNW 985,3 1,3 0,1
07.12.2019 04:00:00 4,9 4,6 14 8 19 11 NW 984,9 4,5 0,3
07.12.2019 03:00:00 5,0 4,7 12 7 35 19 NNW 983,9 7 0,5
07.12.2019 02:00:00 6,1 6,0 4 2 26 14 NNW 983,9 6 0,7
07.12.2019 01:00:00 7,6 7,3 15 8 22 12 WSW 985,0 1,1 1,6
07.12.2019 00:00:00 7,6 7,3 10 5 14 8 WSW 985,4 3,2 3,2
06.12.2019 23:00:00 7,5 7,2 4 2 22 12 WSW 986,1 0,6 2,8
06.12.2019 22:00:00 7,7 7,4 7 4 14 8 WSW 986,9 3,8 2,0
06.12.2019 21:00:00 7,6 7,3 9 5 14 8 SW 987,6 0,5 0,7
06.12.2019 20:00:00 7,6 7,3 9 5 19 11 WSW 988,3 0,5 1,7
06.12.2019 19:00:00 7,4 7,1 5 3 10 5 S 988,6 0,4 1,5
06.12.2019 18:00:00 6,9 6,6 6 3 17 9 WSW 988,8 2,9 1,8
06.12.2019 17:00:00 7,0 6,4 12 7 35 19 SW 989,1 4,0 1,4
06.12.2019 16:00:00 7,1 6,0 22 12 36 20 WSW 989,2 6 0,9
06.12.2019 15:00:00 7,2 6,0 23 12 39 21 WSW 989,1 8 0,2
06.12.2019 14:00:00 7,6 5,4 26 14 44 24 WSW 989,3 12 0,0
06.12.2019 13:00:00 7,7 5,7 26 14 43 23 WSW 989,1 11 0,0
06.12.2019 12:00:00 7,8 5,9 30 16 51 27 WSW 988,7 10 0,0
06.12.2019 11:00:00 7,8 6,1 34 18 52 28 WSW 988,7 11 0,0

tt = temperature
td = dewpoint
ff = wind speed
fx = gusts
dd = wind direction
ppp = reduced air pressure
vv = visibility
rr = precipitation

Next stations